,,PA_Meas_PMT16A,,PR_Meas_QMR101_102,,RH_Meas_QMH101,,SR_Meas_QMS101,,TA_Meas_QMH101,,GenWind,,GenWind,
time,status,PA,status,PR,status,RH,status,SR,status,TA,status,DirAvg,status,SpdAvg,
2010-10-08, 00:00:04,VALID,918.217,VALID,0,VALID,96.3142,VALID,0,VALID,19.9938,VALID,128,VALID,0.687891,
2010-10-08, 00:01:04,VALID,918.193,VALID,0,VALID,96.3524,VALID,0,VALID,19.9938,VALID,128,VALID,0.484766,
2010-10-08, 00:02:04,VALID,918.195,VALID,0,VALID,96.3371,VALID,0,VALID,19.9728,VALID,128,VALID,0.724219,
2010-10-08, 00:03:04,VALID,918.179,VALID,0,VALID,96.3447,VALID,0,VALID,20.0133,VALID,128,VALID,0.582812,
2010-10-08, 00:04:04,VALID,918.166,VALID,0,VALID,96.3447,VALID,0,VALID,20.0133,VALID,128,VALID,0.767969,
2010-10-08, 00:05:04,VALID,918.154,VALID,0,VALID,96.3219,VALID,0,VALID,20.0133,VALID,128,VALID,0.364453,
2010-10-08, 00:06:04,VALID,918.147,VALID,0,VALID,96.3219,VALID,0.107441,VALID,19.9923,VALID,128,VALID,0.814062,
2010-10-08, 00:07:04,VALID,918.148,VALID,0,VALID,96.3295,VALID,0,VALID,20.0328,VALID,128,VALID,0.683594,
2010-10-08, 00:08:04,VALID,918.137,VALID,0,VALID,96.3142,VALID,0,VALID,20.0118,VALID,128,VALID,0.0726563,
2010-10-08, 00:09:04,VALID,918.11,VALID,0,VALID,96.2837,VALID,0,VALID,20.0523,VALID,128,VALID,0.167187,
2010-10-08, 00:10:04,VALID,918.113,VALID,0,VALID,96.1618,VALID,0,VALID,20.0523,VALID,128,VALID,0.486719,
2010-10-08, 00:11:04,VALID,918.103,VALID,0,VALID,96.0398,VALID,0,VALID,20.0328,VALID,127,VALID,0.615625,
2010-10-08, 00:12:04,VALID,918.126,VALID,0,VALID,95.9941,VALID,0,VALID,20.0328,VALID,127,VALID,0.714844,
2010-10-08, 00:13:04,VALID,918.096,VALID,0,VALID,95.9559,VALID,0,VALID,20.0328,VALID,127,VALID,0.6375,
2010-10-08, 00:14:04,VALID,918.111,VALID,0,VALID,95.9026,VALID,0,VALID,20.0133,VALID,128,VALID,0.694922,
2010-10-08, 00:15:04,VALID,918.128,VALID,0,VALID,95.9636,VALID,0,VALID,20.0118,VALID,128,VALID,0.736328,
2010-10-08, 00:16:04,VALID,918.111,VALID,0,VALID,95.9941,VALID,0,VALID,20.0523,VALID,128,VALID,0.696484,
2010-10-08, 00:17:04,VALID,918.096,VALID,0,VALID,95.9636,VALID,0,VALID,20.0523,VALID,128,VALID,0.536328,
2010-10-08, 00:18:04,VALID,918.14,VALID,0,VALID,95.8263,VALID,0,VALID,20.0328,VALID,128,VALID,0.383594,
2010-10-08, 00:19:04,VALID,918.106,VALID,0,VALID,95.6586,VALID,0,VALID,19.9743,VALID,128,VALID,0.380859,
2010-10-08, 00:20:04,VALID,918.097,VALID,0,VALID,95.5976,VALID,0,VALID,19.9533,VALID,128,VALID,0.490234,
2010-10-08, 00:21:04,VALID,918.086,VALID,0,VALID,95.6357,VALID,0,VALID,19.9743,VALID,128,VALID,0.462891,
2010-10-08, 00:22:04,VALID,918.083,VALID,0,VALID,95.6967,VALID,0,VALID,19.9548,VALID,128,VALID,0.507422,
2010-10-08, 00:23:04,VALID,918.058,VALID,0,VALID,95.834,VALID,0,VALID,19.9533,VALID,128,VALID,0.588672,
2010-10-08, 00:24:04,VALID,918.067,VALID,0,VALID,95.9026,VALID,0,VALID,19.9728,VALID,128,VALID,0.234766,
2010-10-08, 00:25:04,VALID,918.068,VALID,0,VALID,95.8111,VALID,0.107441,VALID,19.9533,VALID,128,VALID,0.163672,
2010-10-08, 00:26:04,VALID,918.054,VALID,0,VALID,95.6281,VALID,0,VALID,19.9743,VALID,128,VALID,0.0519531,
2010-10-08, 00:27:04,VALID,918.046,VALID,0,VALID,95.6205,VALID,0,VALID,19.9548,VALID,128,VALID,0,
2010-10-08, 00:28:04,VALID,918.017,VALID,0,VALID,95.529,VALID,0,VALID,19.9758,VALID,128,VALID,0.071875,
2010-10-08, 00:29:04,VALID,918.035,VALID,0,VALID,95.4604,VALID,0,VALID,19.9563,VALID,128,VALID,0.215625,
2010-10-08, 00:30:04,VALID,918.025,VALID,0,VALID,95.468,VALID,0,VALID,19.9563,VALID,128,VALID,0.153125,
2010-10-08, 00:31:04,VALID,917.998,VALID,0,VALID,95.4757,VALID,0,VALID,19.9368,VALID,128,VALID,0.266016,
2010-10-08, 00:32:04,VALID,917.964,VALID,0,VALID,95.3994,VALID,0,VALID,19.9173,VALID,128,VALID,0.383984,
2010-10-08, 00:33:04,VALID,917.977,VALID,0,VALID,95.3156,VALID,0,VALID,19.8783,VALID,128,VALID,0.373828,
2010-10-08, 00:34:04,VALID,917.904,VALID,0,VALID,95.3003,VALID,0,VALID,19.8198,VALID,128,VALID,0.410547,
2010-10-08, 00:35:04,VALID,917.934,VALID,0,VALID,95.3537,VALID,0,VALID,19.8003,VALID,128,VALID,0.401953,
2010-10-08, 00:36:04,VALID,917.894,VALID,0,VALID,95.5214,VALID,0,VALID,19.8003,VALID,128,VALID,0.321875,
2010-10-08, 00:37:04,VALID,917.86,VALID,0,VALID,95.5976,VALID,0,VALID,19.7598,VALID,128,VALID,0.342969,
2010-10-08, 00:38:04,VALID,917.836,VALID,0,VALID,95.5595,VALID,0,VALID,19.7613,VALID,128,VALID,0.182812,
2010-10-08, 00:39:04,VALID,917.827,VALID,0,VALID,95.5367,VALID,0,VALID,19.7208,VALID,128,VALID,0.246094,
2010-10-08, 00:40:04,VALID,917.805,VALID,0,VALID,95.5062,VALID,0,VALID,19.7208,VALID,128,VALID,0.280078,
2010-10-08, 00:41:04,VALID,917.794,VALID,0,VALID,95.468,VALID,0,VALID,19.6833,VALID,128,VALID,0.326562,
2010-10-08, 00:42:04,VALID,917.751,VALID,0,VALID,95.5214,VALID,0,VALID,19.6623,VALID,128,VALID,0.458203,
2010-10-08, 00:43:04,VALID,917.75,VALID,0,VALID,95.6357,VALID,0,VALID,19.6218,VALID,128,VALID,0.439844,
2010-10-08, 00:44:04,VALID,917.747,VALID,0,VALID,95.7272,VALID,0,VALID,19.6023,VALID,128,VALID,0.662891,
2010-10-08, 00:45:04,VALID,917.733,VALID,0,VALID,95.8492,VALID,0.107441,VALID,19.6233,VALID,128,VALID,0.66875,
2010-10-08, 00:46:04,VALID,917.692,VALID,0,VALID,96.0093,VALID,0,VALID,19.6608,VALID,128,VALID,0.81875,
2010-10-08, 00:47:04,VALID,917.702,VALID,0,VALID,95.9026,VALID,0,VALID,19.6803,VALID,128,VALID,0.726953,
2010-10-08, 00:48:04,VALID,917.703,VALID,0,VALID,95.8035,VALID,0,VALID,19.7208,VALID,128,VALID,0.507422,
2010-10-08, 00:49:04,VALID,917.691,VALID,0,VALID,95.7654,VALID,0,VALID,19.7388,VALID,128,VALID,0.398047,
2010-10-08, 00:50:04,VALID,917.674,VALID,0,VALID,95.6205,VALID,0,VALID,19.7793,VALID,128,VALID,0.515234,
2010-10-08, 00:51:04,VALID,917.639,VALID,0,VALID,95.4985,VALID,0,VALID,19.7793,VALID,128,VALID,0.598437,
2010-10-08, 00:52:04,VALID,917.625,VALID,0,VALID,95.3842,VALID,0,VALID,19.7778,VALID,128,VALID,0.571875,
2010-10-08, 00:53:04,VALID,917.618,VALID,0,VALID,95.2317,VALID,0,VALID,19.7973,VALID,128,VALID,0.464063,
2010-10-08, 00:54:04,VALID,917.592,VALID,0,VALID,95.0792,VALID,0.107441,VALID,19.7988,VALID,128,VALID,0.341406,
2010-10-08, 00:55:04,VALID,917.602,VALID,0,VALID,94.9954,VALID,0,VALID,19.8183,VALID,128,VALID,0.407422,
2010-10-08, 00:56:04,VALID,917.581,VALID,0,VALID,94.9192,VALID,0,VALID,19.8183,VALID,128,VALID,0.441016,
2010-10-08, 00:57:04,VALID,917.591,VALID,0,VALID,94.9268,VALID,0,VALID,19.8198,VALID,128,VALID,0.365625,
2010-10-08, 00:58:04,VALID,917.549,VALID,0,VALID,94.9115,VALID,0,VALID,19.8393,VALID,128,VALID,0.315234,
2010-10-08, 00:59:04,VALID,917.581,VALID,0,VALID,94.7591,VALID,0,VALID,19.8378,VALID,128,VALID,0.200391,
2010-10-08, 01:00:04,VALID,917.569,VALID,0,VALID,94.6523,VALID,0,VALID,19.8573,VALID,128,VALID,0.169531,
2010-10-08, 01:01:04,VALID,917.546,VALID,0,VALID,94.4846,VALID,0,VALID,19.8978,VALID,128,VALID,0.00351562,
2010-10-08, 01:02:04,VALID,917.553,VALID,0,VALID,94.416,VALID,0,VALID,19.9173,VALID,128,VALID,0.363672,
2010-10-08, 01:03:04,VALID,917.54,VALID,0,VALID,94.2788,VALID,0,VALID,19.9368,VALID,128,VALID,0.503125,
2010-10-08, 01:04:04,VALID,917.494,VALID,0,VALID,94.1949,VALID,0,VALID,19.9368,VALID,128,VALID,0.626172,
2010-10-08, 01:05:04,VALID,917.496,VALID,0,VALID,94.0882,VALID,0,VALID,19.9368,VALID,128,VALID,0.701172,
2010-10-08, 01:06:04,VALID,917.481,VALID,0,VALID,94.1492,VALID,0,VALID,19.9368,VALID,128,VALID,0.685938,
2010-10-08, 01:07:04,VALID,917.468,VALID,0,VALID,94.2026,VALID,0,VALID,19.9368,VALID,128,VALID,0.546094,
2010-10-08, 01:08:04,VALID,917.444,VALID,0,VALID,94.294,VALID,0,VALID,19.9563,VALID,128,VALID,0.682031,
2010-10-08, 01:09:04,VALID,917.444,VALID,0,VALID,94.3017,VALID,0,VALID,19.9368,VALID,128,VALID,0.801562,
2010-10-08, 01:10:04,VALID,917.427,VALID,0,VALID,94.3017,VALID,0,VALID,19.9173,VALID,128,VALID,0.763281,
2010-10-08, 01:11:04,VALID,917.409,VALID,0,VALID,94.4389,VALID,0,VALID,19.8978,VALID,128,VALID,0.757031,
2010-10-08, 01:12:04,VALID,917.422,VALID,0,VALID,94.5913,VALID,0,VALID,19.8963,VALID,128,VALID,0.775,
2010-10-08, 01:13:04,VALID,917.397,VALID,0,VALID,94.7362,VALID,0,VALID,19.8768,VALID,128,VALID,0.441406,
2010-10-08, 01:14:04,VALID,917.364,VALID,0,VALID,94.7819,VALID,0,VALID,19.8963,VALID,128,VALID,0.544922,
2010-10-08, 01:15:04,VALID,917.337,VALID,0,VALID,94.7057,VALID,0,VALID,19.8963,VALID,128,VALID,0.152734,
2010-10-08, 01:16:04,VALID,917.309,VALID,0,VALID,94.6828,VALID,0,VALID,19.8963,VALID,128,VALID,0.351953,
2010-10-08, 01:17:04,VALID,917.321,VALID,0,VALID,94.8277,VALID,0,VALID,19.8768,VALID,128,VALID,0.143359,
2010-10-08, 01:18:04,VALID,917.328,VALID,0,VALID,94.942,VALID,0,VALID,19.8768,VALID,128,VALID,0.23125,
2010-10-08, 01:19:04,VALID,917.283,VALID,0,VALID,95.0259,VALID,0,VALID,19.8768,VALID,128,VALID,0.0363281,
2010-10-08, 01:20:04,VALID,917.264,VALID,0,VALID,95.0869,VALID,0,VALID,19.8768,VALID,128,VALID,0.0195313,
2010-10-08, 01:21:04,VALID,917.259,VALID,0,VALID,95.0716,VALID,0,VALID,19.8558,VALID,128,VALID,0.386328,
2010-10-08, 01:22:04,VALID,917.244,VALID,0,VALID,95.1021,VALID,0.107441,VALID,19.8768,VALID,128,VALID,0.380469,
2010-10-08, 01:23:04,VALID,917.221,VALID,0,VALID,95.0945,VALID,0,VALID,19.8768,VALID,128,VALID,0.374609,
2010-10-08, 01:24:04,VALID,917.22,VALID,0,VALID,95.1097,VALID,0.107441,VALID,19.8768,VALID,128,VALID,0.167578,
2010-10-08, 01:25:04,VALID,917.192,VALID,0,VALID,94.9344,VALID,0,VALID,19.8573,VALID,128,VALID,0.0195313,
2010-10-08, 01:26:04,VALID,917.191,VALID,0,VALID,94.8582,VALID,0,VALID,19.8768,VALID,128,VALID,0.410547,
2010-10-08, 01:27:04,VALID,917.193,VALID,0,VALID,95.0183,VALID,0,VALID,19.8768,VALID,128,VALID,0.439063,
2010-10-08, 01:28:04,VALID,917.16,VALID,0,VALID,94.9954,VALID,0,VALID,19.8378,VALID,128,VALID,0.325781,
2010-10-08, 01:29:04,VALID,917.166,VALID,0,VALID,95.0335,VALID,0,VALID,19.8378,VALID,128,VALID,0.765625,
2010-10-08, 01:30:04,VALID,917.163,VALID,0,VALID,95.2317,VALID,0,VALID,19.8183,VALID,128,VALID,0.507031,
2010-10-08, 01:31:04,VALID,917.148,VALID,0,VALID,95.3613,VALID,0,VALID,19.7988,VALID,128,VALID,0.216016,
2010-10-08, 01:32:04,VALID,917.124,VALID,0,VALID,95.4147,VALID,0,VALID,19.8003,VALID,128,VALID,0.499219,
2010-10-08, 01:33:04,VALID,917.084,VALID,0,VALID,95.5214,VALID,0,VALID,19.7598,VALID,128,VALID,0.576563,
2010-10-08, 01:34:04,VALID,917.057,VALID,0,VALID,95.6434,VALID,0,VALID,19.7598,VALID,128,VALID,0.430469,
2010-10-08, 01:35:04,VALID,917.049,VALID,0,VALID,95.7349,VALID,0,VALID,19.7403,VALID,128,VALID,0.734766,
2010-10-08, 01:36:04,VALID,917.017,VALID,0,VALID,95.8797,VALID,0,VALID,19.7403,VALID,128,VALID,0.351953,
2010-10-08, 01:37:04,VALID,917.007,VALID,0,VALID,95.9483,VALID,0.107441,VALID,19.7193,VALID,128,VALID,0.428906,
2010-10-08, 01:38:04,VALID,916.977,VALID,0,VALID,96.0245,VALID,0,VALID,19.7403,VALID,128,VALID,0.352344,
2010-10-08, 01:39:04,VALID,916.98,VALID,0,VALID,96.1008,VALID,0,VALID,19.7403,VALID,128,VALID,0.711719,
2010-10-08, 01:40:04,VALID,916.966,VALID,0,VALID,96.1694,VALID,0.107441,VALID,19.7598,VALID,128,VALID,0.747656,
2010-10-08, 01:41:04,VALID,916.933,VALID,0,VALID,96.2075,VALID,0,VALID,19.7403,VALID,128,VALID,0.541016,
2010-10-08, 01:42:04,VALID,916.934,VALID,0,VALID,96.2456,VALID,0,VALID,19.7208,VALID,128,VALID,0.576172,
2010-10-08, 01:43:04,VALID,916.938,VALID,0,VALID,96.2533,VALID,0,VALID,19.7208,VALID,128,VALID,0.630078,
2010-10-08, 01:44:04,VALID,916.866,VALID,0,VALID,96.3142,VALID,0,VALID,19.7208,VALID,128,VALID,0.533594,
2010-10-08, 01:45:04,VALID,916.866,VALID,0,VALID,96.36,VALID,0,VALID,19.7208,VALID,128,VALID,0.542578,
2010-10-08, 01:46:04,VALID,916.87,VALID,0,VALID,96.3447,VALID,0,VALID,19.7208,VALID,128,VALID,0.276172,
2010-10-08, 01:47:04,VALID,916.872,VALID,0,VALID,96.3676,VALID,0,VALID,19.7208,VALID,128,VALID,0.697656,
2010-10-08, 01:48:04,VALID,916.844,VALID,0,VALID,96.3676,VALID,0,VALID,19.7013,VALID,128,VALID,0.455078,
2010-10-08, 01:49:04,VALID,916.855,VALID,0,VALID,96.3219,VALID,0,VALID,19.7208,VALID,128,VALID,0.644141,
2010-10-08, 01:50:04,VALID,916.849,VALID,0,VALID,96.2837,VALID,0,VALID,19.7208,VALID,128,VALID,0.453516,
2010-10-08, 01:51:04,VALID,916.803,VALID,0,VALID,96.2151,VALID,0,VALID,19.7403,VALID,128,VALID,0.320313,
2010-10-08, 01:52:04,VALID,916.802,VALID,0,VALID,96.0932,VALID,0,VALID,19.7013,VALID,128,VALID,0.438672,
2010-10-08, 01:53:04,VALID,916.794,VALID,0,VALID,96.0627,VALID,0,VALID,19.7208,VALID,128,VALID,0.491406,
2010-10-08, 01:54:04,VALID,916.777,VALID,0,VALID,96.0017,VALID,0,VALID,19.7013,VALID,128,VALID,0.447656,
2010-10-08, 01:55:04,VALID,916.723,VALID,0,VALID,95.8721,VALID,0,VALID,19.7028,VALID,128,VALID,0.308203,
2010-10-08, 01:56:04,VALID,916.734,VALID,0,VALID,95.834,VALID,0,VALID,19.7013,VALID,128,VALID,0.387891,
2010-10-08, 01:57:04,VALID,916.723,VALID,0,VALID,95.8035,VALID,0,VALID,19.7208,VALID,128,VALID,0.736719,
2010-10-08, 01:58:04,VALID,916.723,VALID,0,VALID,95.7501,VALID,0.107441,VALID,19.7403,VALID,128,VALID,0.258594,
2010-10-08, 01:59:04,VALID,916.713,VALID,0,VALID,95.6053,VALID,0,VALID,19.7403,VALID,128,VALID,0,
2010-10-08, 02:00:04,VALID,916.721,VALID,0,VALID,95.3308,VALID,0,VALID,19.7208,VALID,128,VALID,0,
2010-10-08, 02:01:04,VALID,916.673,VALID,0,VALID,95.1097,VALID,0,VALID,19.7208,VALID,128,VALID,0,
2010-10-08, 02:02:04,VALID,916.679,VALID,0,VALID,95.0259,VALID,0,VALID,19.7208,VALID,128,VALID,0,
2010-10-08, 02:03:04,VALID,916.638,VALID,0,VALID,95.0183,VALID,0,VALID,19.7403,VALID,128,VALID,0,
2010-10-08, 02:04:04,VALID,916.633,VALID,0,VALID,95.0335,VALID,0,VALID,19.7598,VALID,127,VALID,0,
2010-10-08, 02:05:04,VALID,916.633,VALID,0,VALID,94.8582,VALID,0,VALID,19.7388,VALID,128,VALID,0,
2010-10-08, 02:06:04,VALID,916.619,VALID,0,VALID,94.8277,VALID,0,VALID,19.7598,VALID,128,VALID,0,
2010-10-08, 02:07:04,VALID,916.603,VALID,0,VALID,94.5304,VALID,0,VALID,19.7598,VALID,128,VALID,0,
2010-10-08, 02:08:04,VALID,916.591,VALID,0,VALID,94.0043,VALID,0,VALID,19.7208,VALID,128,VALID,0,
2010-10-08, 02:09:04,VALID,916.577,VALID,0,VALID,94.2483,VALID,0,VALID,19.7208,VALID,128,VALID,0,
2010-10-08, 02:10:04,VALID,916.596,VALID,0,VALID,94.2102,VALID,0,VALID,19.6818,VALID,128,VALID,0,
2010-10-08, 02:11:04,VALID,916.553,VALID,0,VALID,94.4617,VALID,0,VALID,19.6638,VALID,128,VALID,0,
2010-10-08, 02:12:04,VALID,916.551,VALID,0,VALID,94.7972,VALID,0,VALID,19.6233,VALID,128,VALID,0,
2010-10-08, 02:13:04,VALID,916.54,VALID,0,VALID,94.9801,VALID,0,VALID,19.6233,VALID,128,VALID,0,
2010-10-08, 02:14:04,VALID,916.513,VALID,0,VALID,94.9801,VALID,0,VALID,19.6233,VALID,128,VALID,0,
2010-10-08, 02:15:04,VALID,916.497,VALID,0,VALID,94.7286,VALID,0,VALID,19.5453,VALID,128,VALID,0,
2010-10-08, 02:16:04,VALID,916.491,VALID,0,VALID,94.9801,VALID,0,VALID,19.5648,VALID,128,VALID,0,
2010-10-08, 02:17:04,VALID,916.492,VALID,0,VALID,95.0945,VALID,0,VALID,19.5648,VALID,128,VALID,0,
2010-10-08, 02:18:04,VALID,916.473,VALID,0,VALID,95.0488,VALID,0,VALID,19.5258,VALID,128,VALID,0,
2010-10-08, 02:19:04,VALID,916.49,VALID,0,VALID,94.8505,VALID,0,VALID,19.5063,VALID,128,VALID,0,
2010-10-08, 02:20:04,VALID,916.467,VALID,0,VALID,94.6447,VALID,0,VALID,19.4868,VALID,128,VALID,0,
2010-10-08, 02:21:04,VALID,916.483,VALID,0,VALID,94.9573,VALID,0,VALID,19.5063,VALID,128,VALID,0,
2010-10-08, 02:22:04,VALID,916.441,VALID,0,VALID,95.2546,VALID,0,VALID,19.5063,VALID,128,VALID,0,
2010-10-08, 02:23:04,VALID,916.425,VALID,0,VALID,95.0792,VALID,0,VALID,19.4673,VALID,128,VALID,0,
2010-10-08, 02:24:04,VALID,916.444,VALID,0,VALID,95.186,VALID,0,VALID,19.4478,VALID,128,VALID,0,
2010-10-08, 02:25:04,VALID,916.415,VALID,0,VALID,95.3079,VALID,0,VALID,19.4478,VALID,128,VALID,0,
2010-10-08, 02:26:04,VALID,916.435,VALID,0,VALID,95.4299,VALID,0.107441,VALID,19.4673,VALID,128,VALID,0,
2010-10-08, 02:27:04,VALID,916.414,VALID,0,VALID,95.3918,VALID,0,VALID,19.4074,VALID,128,VALID,0,
2010-10-08, 02:28:04,VALID,916.401,VALID,0,VALID,95.3613,VALID,0,VALID,19.3893,VALID,128,VALID,0,
2010-10-08, 02:29:04,VALID,916.405,VALID,0,VALID,95.3689,VALID,0,VALID,19.3698,VALID,128,VALID,0,
2010-10-08, 02:30:04,VALID,916.38,VALID,0,VALID,95.5976,VALID,0.107441,VALID,19.4088,VALID,128,VALID,0,
2010-10-08, 02:31:04,VALID,916.401,VALID,0,VALID,95.7882,VALID,0,VALID,19.4478,VALID,128,VALID,0,
2010-10-08, 02:32:04,VALID,916.383,VALID,0,VALID,95.8721,VALID,0,VALID,19.4478,VALID,128,VALID,0,
2010-10-08, 02:33:04,VALID,916.38,VALID,0,VALID,95.9712,VALID,0,VALID,19.5063,VALID,128,VALID,0,
2010-10-08, 02:34:04,VALID,916.364,VALID,0,VALID,96.0245,VALID,0,VALID,19.5453,VALID,128,VALID,0,
2010-10-08, 02:35:04,VALID,916.371,VALID,0,VALID,96.0245,VALID,0,VALID,19.6038,VALID,128,VALID,0,
2010-10-08, 02:36:04,VALID,916.354,VALID,0,VALID,95.9636,VALID,0,VALID,19.6428,VALID,128,VALID,0.361719,
2010-10-08, 02:37:04,VALID,916.365,VALID,0,VALID,95.7577,VALID,0,VALID,19.6233,VALID,128,VALID,0.261719,
2010-10-08, 02:38:04,VALID,916.363,VALID,0,VALID,95.2241,VALID,0,VALID,19.5843,VALID,128,VALID,0.164453,
2010-10-08, 02:39:04,VALID,916.356,VALID,0,VALID,95.0335,VALID,0.107441,VALID,19.6038,VALID,128,VALID,0.290234,
2010-10-08, 02:40:04,VALID,916.342,VALID,0,VALID,95.0488,VALID,0,VALID,19.6233,VALID,128,VALID,0,
2010-10-08, 02:41:04,VALID,916.331,VALID,0,VALID,95.1783,VALID,0.107441,VALID,19.6623,VALID,128,VALID,0,
2010-10-08, 02:42:04,VALID,916.316,VALID,0,VALID,95.0945,VALID,0,VALID,19.6623,VALID,128,VALID,0,
2010-10-08, 02:43:04,VALID,916.338,VALID,0,VALID,95.0564,VALID,0,VALID,19.6818,VALID,128,VALID,0,
2010-10-08, 02:44:04,VALID,916.318,VALID,0,VALID,94.9344,VALID,0,VALID,19.7013,VALID,128,VALID,0,
2010-10-08, 02:45:04,VALID,916.323,VALID,0,VALID,94.9496,VALID,0.107441,VALID,19.7193,VALID,128,VALID,0,
2010-10-08, 02:46:04,VALID,916.334,VALID,0,VALID,94.9649,VALID,0.107441,VALID,19.7598,VALID,128,VALID,0,
2010-10-08, 02:47:04,VALID,916.328,VALID,0,VALID,94.6447,VALID,0,VALID,19.7598,VALID,128,VALID,0.126953,
2010-10-08, 02:48:04,VALID,916.304,VALID,0,VALID,94.3474,VALID,0.107441,VALID,19.7598,VALID,128,VALID,0,
2010-10-08, 02:49:04,VALID,916.344,VALID,0,VALID,94.1187,VALID,0,VALID,19.7403,VALID,128,VALID,0,
2010-10-08, 02:50:04,VALID,916.303,VALID,0,VALID,93.89,VALID,0,VALID,19.7403,VALID,128,VALID,0,
2010-10-08, 02:51:04,VALID,916.309,VALID,0,VALID,93.8138,VALID,0.107441,VALID,19.7403,VALID,128,VALID,0,
2010-10-08, 02:52:04,VALID,916.316,VALID,0,VALID,93.8671,VALID,0,VALID,19.7403,VALID,128,VALID,0,
2010-10-08, 02:53:04,VALID,916.317,VALID,0,VALID,93.768,VALID,0,VALID,19.7598,VALID,128,VALID,0.344531,
2010-10-08, 02:54:04,VALID,916.296,VALID,0,VALID,94.2102,VALID,0,VALID,19.7988,VALID,128,VALID,0.387109,
2010-10-08, 02:55:04,VALID,916.315,VALID,0,VALID,94.6676,VALID,0.107441,VALID,19.8378,VALID,128,VALID,0.142969,
2010-10-08, 02:56:04,VALID,916.317,VALID,0,VALID,94.8734,VALID,0,VALID,19.8573,VALID,128,VALID,0,
2010-10-08, 02:57:04,VALID,916.327,VALID,0,VALID,94.6828,VALID,0,VALID,19.8573,VALID,128,VALID,0,
2010-10-08, 02:58:04,VALID,916.319,VALID,0,VALID,94.4084,VALID,0,VALID,19.8783,VALID,128,VALID,0.00078125,
2010-10-08, 02:59:04,VALID,916.311,VALID,0,VALID,94.3321,VALID,0,VALID,19.8963,VALID,128,VALID,0,
2010-10-08, 03:00:04,VALID,916.316,VALID,0,VALID,93.7147,VALID,0,VALID,19.8783,VALID,128,VALID,0,
2010-10-08, 03:01:04,VALID,916.297,VALID,0,VALID,93.6232,VALID,0,VALID,19.8378,VALID,128,VALID,0.0277344,
2010-10-08, 03:02:04,VALID,916.319,VALID,0,VALID,93.8366,VALID,0,VALID,19.8378,VALID,128,VALID,0.324219,
2010-10-08, 03:03:04,VALID,916.303,VALID,0,VALID,94.3779,VALID,0,VALID,19.8768,VALID,128,VALID,0.0359375,
2010-10-08, 03:04:04,VALID,916.298,VALID,0,VALID,94.6371,VALID,0,VALID,19.8963,VALID,128,VALID,0,
2010-10-08, 03:05:04,VALID,916.309,VALID,0,VALID,94.7057,VALID,0,VALID,19.9158,VALID,128,VALID,0,
2010-10-08, 03:06:04,VALID,916.309,VALID,0,VALID,93.8671,VALID,0,VALID,19.8963,VALID,128,VALID,0,
2010-10-08, 03:07:04,VALID,916.303,VALID,0,VALID,93.2115,VALID,0,VALID,19.8573,VALID,127,VALID,0,
2010-10-08, 03:08:04,VALID,916.277,VALID,0,VALID,93.3182,VALID,0,VALID,19.8378,VALID,128,VALID,0,
2010-10-08, 03:09:04,VALID,916.297,VALID,0,VALID,93.707,VALID,0,VALID,19.8183,VALID,128,VALID,0,
2010-10-08, 03:10:04,VALID,916.284,VALID,0,VALID,93.9891,VALID,0,VALID,19.8183,VALID,128,VALID,0,
2010-10-08, 03:11:04,VALID,916.3,VALID,0,VALID,93.9052,VALID,0,VALID,19.8378,VALID,128,VALID,0.0515625,
2010-10-08, 03:12:04,VALID,916.298,VALID,0,VALID,94.073,VALID,0.107441,VALID,19.8183,VALID,128,VALID,0.195703,
2010-10-08, 03:13:04,VALID,916.302,VALID,0,VALID,94.1949,VALID,0,VALID,19.8378,VALID,128,VALID,0,
2010-10-08, 03:14:04,VALID,916.282,VALID,0,VALID,94.6066,VALID,0,VALID,19.8573,VALID,128,VALID,0.378516,
2010-10-08, 03:15:04,VALID,916.275,VALID,0,VALID,94.6218,VALID,0,VALID,19.8378,VALID,128,VALID,0.582031,
2010-10-08, 03:16:04,VALID,916.289,VALID,0,VALID,94.4999,VALID,0,VALID,19.8588,VALID,128,VALID,0.2375,
2010-10-08, 03:17:04,VALID,916.304,VALID,0,VALID,94.4084,VALID,0,VALID,19.7988,VALID,128,VALID,0.425,
2010-10-08, 03:18:04,VALID,916.29,VALID,0,VALID,94.9115,VALID,0,VALID,19.8378,VALID,128,VALID,0.741797,
2010-10-08, 03:19:04,VALID,916.268,VALID,0,VALID,94.8963,VALID,0,VALID,19.8183,VALID,128,VALID,0.257813,
2010-10-08, 03:20:04,VALID,916.262,VALID,0,VALID,95.0869,VALID,0,VALID,19.8378,VALID,128,VALID,0.480859,
2010-10-08, 03:21:04,VALID,916.262,VALID,0,VALID,95.1174,VALID,0,VALID,19.8573,VALID,128,VALID,0.0109375,
2010-10-08, 03:22:04,VALID,916.236,VALID,0,VALID,95.1555,VALID,0,VALID,19.8573,VALID,128,VALID,0,
2010-10-08, 03:23:04,VALID,916.238,VALID,0,VALID,94.8658,VALID,0,VALID,19.8378,VALID,128,VALID,0,
2010-10-08, 03:24:04,VALID,916.243,VALID,0,VALID,94.6981,VALID,0,VALID,19.8378,VALID,128,VALID,0,
2010-10-08, 03:25:04,VALID,916.248,VALID,0,VALID,94.7438,VALID,0,VALID,19.8183,VALID,128,VALID,0,
2010-10-08, 03:26:04,VALID,916.234,VALID,0,VALID,94.6905,VALID,0,VALID,19.8183,VALID,128,VALID,0,
2010-10-08, 03:27:04,VALID,916.244,VALID,0,VALID,94.6066,VALID,0,VALID,19.7598,VALID,128,VALID,0,
2010-10-08, 03:28:04,VALID,916.214,VALID,0,VALID,94.6218,VALID,0,VALID,19.7598,VALID,128,VALID,0,
2010-10-08, 03:29:04,VALID,916.193,VALID,0,VALID,94.8277,VALID,0,VALID,19.7598,VALID,128,VALID,0,
2010-10-08, 03:30:04,VALID,916.204,VALID,0,VALID,94.8124,VALID,0,VALID,19.7403,VALID,128,VALID,0,
2010-10-08, 03:31:04,VALID,916.2,VALID,0,VALID,94.8582,VALID,0,VALID,19.7223,VALID,128,VALID,0,
2010-10-08, 03:32:04,VALID,916.176,VALID,0,VALID,94.8429,VALID,0,VALID,19.6818,VALID,128,VALID,0.421484,
2010-10-08, 03:33:04,VALID,916.195,VALID,0,VALID,94.9573,VALID,0,VALID,19.6443,VALID,128,VALID,0.241016,
2010-10-08, 03:34:04,VALID,916.168,VALID,0,VALID,95.0869,VALID,0,VALID,19.6038,VALID,128,VALID,0.267969,
2010-10-08, 03:35:04,VALID,916.186,VALID,0,VALID,95.468,VALID,0,VALID,19.6428,VALID,128,VALID,0.310156,
2010-10-08, 03:36:04,VALID,916.173,VALID,0,VALID,95.7044,VALID,0,VALID,19.6623,VALID,128,VALID,0,
2010-10-08, 03:37:04,VALID,916.182,VALID,0,VALID,95.8797,VALID,0,VALID,19.6818,VALID,128,VALID,0,
2010-10-08, 03:38:04,VALID,916.19,VALID,0,VALID,96.0169,VALID,0,VALID,19.7208,VALID,128,VALID,0.0953125,
2010-10-08, 03:39:04,VALID,916.168,VALID,0,VALID,96.0855,VALID,0,VALID,19.7598,VALID,128,VALID,0.167578,
2010-10-08, 03:40:04,VALID,916.183,VALID,0,VALID,96.0932,VALID,0,VALID,19.7988,VALID,128,VALID,0,
2010-10-08, 03:41:04,VALID,916.183,VALID,0,VALID,96.0855,VALID,0,VALID,19.8183,VALID,128,VALID,0,
2010-10-08, 03:42:04,VALID,916.192,VALID,0,VALID,95.9788,VALID,0,VALID,19.8198,VALID,128,VALID,0,
2010-10-08, 03:43:04,VALID,916.212,VALID,0,VALID,95.9254,VALID,0,VALID,19.8183,VALID,128,VALID,0.226563,
2010-10-08, 03:44:04,VALID,916.203,VALID,0,VALID,95.9483,VALID,0,VALID,19.8378,VALID,128,VALID,0.0511719,
2010-10-08, 03:45:04,VALID,916.224,VALID,0,VALID,95.834,VALID,0,VALID,19.8378,VALID,128,VALID,0.199609,
2010-10-08, 03:46:04,VALID,916.194,VALID,0,VALID,95.7806,VALID,0,VALID,19.8378,VALID,128,VALID,0,
2010-10-08, 03:47:04,VALID,916.198,VALID,0,VALID,95.6967,VALID,0,VALID,19.8378,VALID,128,VALID,0,